[[{"header":{"parameterUnit":"m.s-1","parameterCategory":1,"la1":30.2991,"la2":30.254,"lo1":-89.0895,"lo2":-89.0444,"dy":0.0017,"dx":0.0017,"nx":28,"ny":28,"refTime":"2025-11-24T03:00:00:Z","depth":0,"parameterNumber":2,"parameterNumberName":"U-component_of_WINDS"},"data":[0,0,0,0,0,0,0,0,0,0,0,0,0,0,0,0,0,0,0,0,0,0,0,0,0,0,0,0,0,0,0,0,0,0,0,0,0,0,0,0,0,0,0,0,0,0,0,0,0,0,0,0,0,0,0,0,0,0,-1.8369,-1.837,0,-1.8469,-1.847,-1.8471,-1.8521,-1.8521,-1.8521,-1.8521,-1.862,-1.8623,-1.8625,0,0,0,0,0,0,0,0,0,0,0,0,0,-1.8217,-1.8219,-1.8369,-1.837,-1.8371,-1.8469,-1.847,-1.8472,-1.8521,-1.8521,-1.8521,-1.8521,-1.8619,-1.8622,-1.8626,0,0,0,0,0,0,0,0,0,0,0,0,0,-1.8296,-1.822,-1.8368,-1.8408,-1.8412,-1.8469,-1.847,-1.8472,-1.8521,-1.8521,-1.8521,-1.8521,-1.8618,-1.8622,-1.8626,-1.865,0,0,-1.8638,-1.864,0,0,0,0,0,0,0,0,-1.8292,-1.8302,-1.8401,-1.8405,-1.841,-1.8483,-1.8453,-1.8531,-1.8521,-1.848,-1.8521,-1.8521,-1.8574,-1.8582,-1.86,-1.8654,-1.8658,-1.8638,-1.8641,-1.8642,-1.8644,0,0,0,0,0,0,0,-1.8286,-1.8298,-1.8408,-1.8402,-1.8408,-1.8419,-1.8431,-1.8468,-1.8525,-1.8483,-1.8487,-1.8499,-1.8577,-1.8596,-1.8603,-1.866,-1.8638,-1.8642,-1.8644,-1.8646,-1.8738,-1.8738,0,0,0,0,0,0,-1.8275,-1.8293,-1.8405,-1.8411,-1.835,-1.8422,-1.8435,-1.8459,-1.8525,-1.8535,-1.8498,-1.8501,-1.859,-1.8598,-1.8607,-1.8639,-1.8642,-1.8646,-1.8648,-1.8738,-1.8738,-1.8738,0,0,0,0,0,0,-1.8271,-1.8284,-1.8401,-1.8353,-1.8369,-1.8425,-1.8452,-1.8461,-1.8481,-1.8537,-1.8547,-1.8508,-1.859,-1.8601,-1.8639,-1.8643,-1.8648,-1.8651,-1.8738,-1.8738,-1.8738,-1.8703,0,0,0,0,0,0,-1.8267,-1.8283,-1.8293,-1.8353,-1.8371,-1.8433,-1.8452,-1.8463,-1.8488,-1.8492,-1.8549,-1.8558,-1.8591,-1.8633,-1.8643,-1.8649,-1.8654,-1.8738,-1.8738,-1.8738,-1.8704,-1.8702,-1.87,0,0,0,0,0,-1.8261,-1.8279,-1.8293,-1.8307,-1.8386,-1.8433,-1.8443,-1.8482,-1.8488,-1.8499,-1.8534,-1.8556,-1.8641,-1.8636,-1.8648,-1.8655,-1.8737,-1.8738,-1.8738,-1.8705,-1.8703,-1.87,0,0,0,0,0,0,-1.8217,-1.8287,-1.8304,-1.8342,-1.8381,-1.8441,-1.8456,-1.8478,-1.8515,-1.8517,-1.8562,-1.8574,-1.8608,-1.8635,-1.8628,-1.8681,-1.8691,-1.8694,-1.8662,-1.866,-1.8658,-1.8651,-1.8658,0,0,0,0,0,-1.8212,-1.8245,-1.8304,-1.8332,-1.8351,-1.8399,-1.8421,-1.8448,-1.849,-1.8506,-1.8544,-1.8583,-1.8618,-1.8641,-1.8676,-1.8708,-1.8721,-1.8719,-1.8717,-1.8715,-1.8717,-1.8735,-1.8735,-1.8739,-1.8739,-1.8739,0,0,-1.8201,-1.8244,-1.8262,-1.8324,-1.8357,-1.839,-1.8413,-1.8446,-1.8471,-1.8511,-1.8549,-1.8578,-1.8624,-1.8659,-1.8676,-1.8683,-1.8718,-1.8715,-1.8713,-1.8716,-1.8735,-1.8735,-1.8735,-1.8739,-1.8739,-1.8739,0,0,-1.8198,-1.8234,-1.8261,-1.8294,-1.8345,-1.8377,-1.8383,-1.844,-1.8461,-1.85,-1.8531,-1.856,-1.862,-1.8651,-1.8675,-1.8684,-1.8705,-1.8694,-1.8684,-1.8702,-1.8701,-1.8701,-1.8704,-1.8705,-1.8695,-1.8695,-1.8695,0,-1.8179,-1.823,-1.8272,-1.8304,-1.833,-1.8368,-1.8395,-1.8425,-1.8484,-1.85,-1.8507,-1.8583,-1.8617,-1.866,-1.8662,-1.868,-1.8688,-1.8688,-1.8698,-1.8699,-1.8699,-1.8703,-1.8704,-1.8694,-1.8694,-1.8694,-1.8694,0,-1.8203,-1.8238,-1.8253,-1.8311,-1.8338,-1.8368,-1.8413,-1.8435,-1.8459,-1.849,-1.8529,-1.8571,-1.8616,-1.8628,-1.8651,-1.8674,-1.8676,-1.869,-1.8701,-1.8696,-1.8701,-1.8702,-1.8691,-1.8692,-1.8692,-1.8693,0,0,-1.8177,-1.8256,-1.8261,-1.8287,-1.8345,-1.8373,-1.8403,-1.8448,-1.8467,-1.8505,-1.8532,-1.8581,-1.8595,-1.8621,-1.8648,-1.8664,-1.8668,-1.8676,-1.8677,-1.8673,-1.8696,-1.8685,-1.8686,-1.8682,-1.8682,-1.8683,-1.8692,0,-1.8182,-1.824,-1.8278,-1.832,-1.8353,-1.8389,-1.8416,-1.8453,-1.8483,-1.8514,-1.8546,-1.8581,-1.8596,-1.8612,-1.8629,-1.8664,-1.8673,-1.8663,-1.8706,-1.8707,-1.8694,-1.8688,-1.8678,-1.8684,-1.8694,-1.8694,-1.8694,0,-1.8197,-1.8236,-1.8282,-1.8336,-1.8351,-1.8375,-1.8418,-1.8448,-1.8491,-1.8511,-1.8541,-1.8569,-1.8601,-1.8609,-1.8654,-1.8647,-1.8666,-1.8686,-1.8687,-1.8693,-1.8701,-1.8694,-1.8687,-1.8688,-1.8697,-1.8697,-1.8697,0,-1.8174,-1.8237,-1.8273,-1.8294,-1.8358,-1.8374,-1.8401,-1.8444,-1.8469,-1.8506,-1.8523,-1.8563,-1.8585,-1.8616,-1.8653,-1.8655,-1.8694,-1.8705,-1.8711,-1.871,-1.8718,-1.8717,-1.8715,-1.873,-1.873,-1.873,-1.873,0,-1.8177,-1.8203,-1.8263,-1.8285,-1.8315,-1.8358,-1.8387,-1.8417,-1.8455,-1.8482,-1.8516,-1.8541,-1.8588,-1.8619,-1.8647,-1.868,-1.869,-1.8707,-1.8714,-1.8704,-1.8702,-1.8718,-1.8719,-1.873,-1.873,-1.873,-1.873,0,-1.8156,-1.8197,-1.8238,-1.8295,-1.831,-1.833,-1.8379,-1.8401,-1.8432,-1.8467,-1.8477,-1.8526,-1.8564,-1.8604,-1.8654,-1.8674,-1.8705,-1.8716,-1.8691,-1.8696,-1.87,-1.8699,-1.8708,-1.8711,-1.8723,-1.8723,-1.8723,0,-1.8155,-1.8177,-1.8236,-1.8258,-1.8284,-1.8318,-1.8343,-1.8385,-1.841,-1.8461,-1.8476,-1.8517,-1.8551,-1.8609,-1.8649,-1.8688,-1.8699,-1.87,-1.8705,-1.8694,-1.87,-1.8698,-1.8701,-1.8698,-1.8697,-1.8697,-1.8697,0,-1.815,-1.8169,-1.8205,-1.8247,-1.8276,-1.8312,-1.8348,-1.8363,-1.8413,-1.8438,-1.8478,-1.8505,-1.8557,-1.8596,-1.864,-1.8667,-1.869,-1.8695,-1.8698,-1.8689,-1.8674,-1.8682,-1.8687,-1.8695,-1.8695,-1.8695,-1.8695,-1.8695,-1.814,-1.816,-1.8205,-1.8244,-1.8276,-1.8309,-1.8332,-1.8367,-1.8401,-1.8447,-1.8469,-1.8509,-1.8551,-1.8612,-1.8638,-1.8669,-1.8676,-1.8681,-1.8682,-1.8683,-1.8681,-1.8668,-1.8677,-1.8677,-1.8677,-1.8677,-1.8677,0,-1.8136,-1.8167,-1.8202,-1.8252,-1.8282,-1.8302,-1.8343,-1.8366,-1.8401,-1.8438,-1.8472,-1.8517,-1.8555,-1.8597,-1.8638,-1.8654,-1.8666,-1.8663,-1.8663,-1.8669,-1.8672,-1.8665,-1.8653,-1.8653,-1.8653,-1.8653,-1.8653,-1.8653,-1.8138,-1.8174,-1.8199,-1.825,-1.8281,-1.832,-1.8342,-1.8372,-1.8403,-1.8452,-1.8484,-1.8512,-1.8551,-1.8595,-1.863,-1.8642,-1.8655,-1.865,-1.8664,-1.8667,-1.8668,-1.867,-1.8664,-1.8652,-1.8652,-1.8659,-1.8659,-1.8659]},{"header":{"parameterUnit":"m.s-1","parameterCategory":1,"la1":30.2991,"la2":30.254,"lo1":-89.0895,"lo2":-89.0444,"dy":0.0017,"dx":0.0017,"nx":28,"ny":28,"refTime":"2025-11-24T03:00:00:Z","depth":0,"parameterNumber":3,"parameterNumberName":"V-component_of_WINDS"},"data":[0,0,0,0,0,0,0,0,0,0,0,0,0,0,0,0,0,0,0,0,0,0,0,0,0,0,0,0,0,0,0,0,0,0,0,0,0,0,0,0,0,0,0,0,0,0,0,0,0,0,0,0,0,0,0,0,0,0,6.2682,6.2683,0,6.2736,6.2736,6.2737,6.2722,6.2721,6.272,6.2719,6.2766,6.2769,6.2771,0,0,0,0,0,0,0,0,0,0,0,0,0,6.2559,6.2562,6.2682,6.2683,6.2683,6.2736,6.2736,6.2737,6.2722,6.2721,6.2719,6.2718,6.2766,6.2768,6.2771,0,0,0,0,0,0,0,0,0,0,0,0,0,6.2613,6.2562,6.2682,6.2682,6.2683,6.2736,6.2736,6.2737,6.2722,6.2721,6.2719,6.2717,6.2765,6.2768,6.2771,6.2825,0,0,6.2782,6.2783,0,0,0,0,0,0,0,0,6.261,6.2617,6.2681,6.2682,6.2683,6.2721,6.2711,6.2766,6.2723,6.2707,6.2719,6.2717,6.2752,6.2756,6.277,6.2827,6.2829,6.2782,6.2784,6.2786,6.2787,0,0,0,0,0,0,0,6.2606,6.2615,6.2703,6.2682,6.2683,6.2678,6.2683,6.2721,6.2737,6.2708,6.2707,6.2714,6.2752,6.2766,6.2771,6.283,6.2782,6.2785,6.2787,6.2788,6.2934,6.2936,0,0,0,0,0,0,6.2603,6.2612,6.2701,6.2705,6.2642,6.2681,6.2688,6.271,6.2737,6.274,6.2716,6.2713,6.2761,6.2767,6.2772,6.2837,6.2786,6.2789,6.2791,6.2933,6.2935,6.2937,0,0,0,0,0,0,6.26,6.2611,6.2699,6.2658,6.2669,6.2685,6.271,6.2712,6.2726,6.2743,6.2745,6.2728,6.276,6.2767,6.2813,6.2839,6.279,6.2793,6.293,6.2933,6.2936,6.2967,0,0,0,0,0,0,6.2597,6.261,6.2632,6.2659,6.2671,6.274,6.2712,6.2714,6.2733,6.2731,6.2755,6.2757,6.276,6.2808,6.2816,6.2842,6.2796,6.2928,6.2932,6.2935,6.2964,6.297,6.2976,0,0,0,0,0,6.2592,6.2636,6.2633,6.2644,6.2699,6.2742,6.2749,6.2753,6.2735,6.2757,6.2767,6.2756,6.2835,6.2812,6.2822,6.2849,6.2926,6.2931,6.2935,6.2961,6.2969,6.2976,0,0,0,0,0,0,6.2608,6.264,6.2636,6.2691,6.2714,6.2739,6.2766,6.2761,6.2788,6.2784,6.2786,6.2791,6.2837,6.2848,6.2822,6.2903,6.2878,6.2884,6.2894,6.2903,6.2909,6.2905,6.2799,0,0,0,0,0,6.2619,6.2654,6.2678,6.2724,6.2736,6.2749,6.2768,6.277,6.2793,6.2801,6.2815,6.2836,6.2866,6.2885,6.2912,6.2966,6.297,6.2989,6.2996,6.3001,6.3006,6.3035,6.3044,6.295,6.295,6.295,0,0,6.264,6.2661,6.2682,6.2728,6.2746,6.278,6.2757,6.2794,6.2818,6.2806,6.285,6.2862,6.2885,6.2935,6.2957,6.2945,6.3033,6.3006,6.301,6.3012,6.304,6.3049,6.3057,6.2953,6.2952,6.2952,0,0,6.2696,6.2716,6.2757,6.2777,6.2806,6.2815,6.2825,6.2851,6.2859,6.2904,6.2896,6.2924,6.2975,6.2992,6.3007,6.3072,6.3063,6.3081,6.3114,6.3142,6.3149,6.3156,6.3179,6.3187,6.3086,6.3086,6.3086,0,6.2717,6.277,6.2777,6.2816,6.2836,6.283,6.2871,6.2888,6.2924,6.2937,6.2923,6.2988,6.3003,6.3057,6.3073,6.3086,6.3096,6.3078,6.3148,6.3155,6.3161,6.3183,6.3192,6.3088,6.3088,6.3088,6.3088,0,6.2795,6.2832,6.2862,6.29,6.2923,6.2962,6.2974,6.2996,6.2996,6.3006,6.3052,6.307,6.3102,6.3115,6.3114,6.3169,6.3161,6.3148,6.3122,6.3172,6.3192,6.3201,6.3091,6.309,6.309,6.3089,0,0,6.286,6.2905,6.2916,6.2934,6.2967,6.2994,6.3033,6.3067,6.3086,6.3111,6.3143,6.3187,6.3176,6.3193,6.3194,6.3219,6.327,6.3203,6.3204,6.3215,6.3332,6.3341,6.3351,6.3265,6.3266,6.3268,6.333,0,6.2919,6.299,6.2999,6.3061,6.3096,6.3092,6.3125,6.3148,6.3158,6.3187,6.3198,6.3229,6.3212,6.3223,6.3248,6.3259,6.3293,6.3254,6.3292,6.3294,6.3286,6.3362,6.3372,6.3429,6.3338,6.3339,6.334,0,6.2996,6.3028,6.3095,6.3125,6.3139,6.317,6.3203,6.3231,6.3256,6.3262,6.3284,6.3282,6.332,6.3294,6.3346,6.332,6.3336,6.3344,6.3346,6.3349,6.3319,6.3366,6.3448,6.3456,6.3353,6.3352,6.3351,0,6.3037,6.3096,6.3144,6.3159,6.3196,6.3217,6.3233,6.3257,6.3278,6.3306,6.3319,6.335,6.3366,6.339,6.3396,6.3376,6.3448,6.3422,6.3452,6.3452,6.3466,6.3465,6.3551,6.3478,6.3478,6.3478,6.3477,0,6.3101,6.3142,6.3164,6.3193,6.3239,6.3248,6.3292,6.3306,6.3328,6.3359,6.3356,6.3384,6.3391,6.342,6.3425,6.3467,6.3474,6.3479,6.348,6.3479,6.3479,6.3489,6.3485,6.348,6.3479,6.3479,6.3479,0,6.3154,6.317,6.3223,6.3254,6.3263,6.3295,6.3321,6.3348,6.336,6.3399,6.3408,6.3424,6.3459,6.3468,6.3508,6.3511,6.3561,6.3558,6.3553,6.3553,6.3583,6.358,6.3678,6.3691,6.3609,6.361,6.3611,0,6.3194,6.3226,6.3263,6.3285,6.3302,6.3337,6.336,6.337,6.3392,6.3425,6.3448,6.3483,6.3511,6.3566,6.358,6.3611,6.3608,6.364,6.3612,6.3611,6.3608,6.3606,6.3609,6.3645,6.3646,6.3647,6.3647,0,6.3263,6.327,6.3304,6.3341,6.3369,6.3397,6.3424,6.3442,6.3456,6.3481,6.3518,6.354,6.3583,6.3617,6.3649,6.3662,6.3657,6.3657,6.3665,6.3665,6.3661,6.3663,6.3568,6.3654,6.3653,6.3653,6.3652,6.3652,6.331,6.3339,6.337,6.3408,6.3431,6.3457,6.3485,6.3502,6.3534,6.3572,6.3575,6.3615,6.364,6.3682,6.3697,6.3727,6.3717,6.3729,6.3733,6.3735,6.3738,6.3657,6.3733,6.3733,6.3732,6.3732,6.3732,0,6.3379,6.34,6.3435,6.3475,6.3505,6.3501,6.3532,6.3556,6.3592,6.3618,6.3647,6.3689,6.3723,6.3741,6.3774,6.3794,6.3792,6.3802,6.38,6.3804,6.3745,6.3735,6.3803,6.3803,6.3803,6.3803,6.3803,6.3803,6.3418,6.3468,6.3479,6.3539,6.3558,6.36,6.3618,6.3642,6.3662,6.3711,6.3741,6.3753,6.3775,6.381,6.384,6.3844,6.3856,6.3867,6.387,6.3815,6.3808,6.3801,6.3791,6.387,6.387,6.3926,6.3926,6.3927]}]]